START_TIME,STEP,MOV.,M15,t_acc.,M20,t_acc.
1980-11-13 18:00:32.460 ,6,0,0.,24.0,0.,24.0
1980-11-13 18:00:56.460 ,7,1,1.,24.0,0.,24.0
1980-11-13 18:01:20.460 ,7,0,0.,24.0,0.,24.0
1980-11-13 18:01:44.460 ,7,1,0.,24.0,0.,24.0
1980-11-13 18:02:08.460 ,7,0,0.,24.0,0.,24.0
1980-11-13 18:02:32.460 ,6,1,0.,24.0,0.,24.0
1980-11-13 18:02:56.460 ,6,0,0.,24.0,0.,24.0
1980-11-13 18:03:20.460 ,5,1,0.,24.0,0.,24.0
1980-11-13 18:03:44.460 ,5,0,0.,24.0,0.,24.0
1980-11-13 18:04:08.460 ,4,1,0.,24.0,0.,24.0
1980-11-13 18:04:32.460 ,4,0,0.,24.0,0.,24.0
1980-11-13 18:04:56.460 ,3,1,0.,24.0,0.,24.0
1980-11-13 18:05:20.460 ,3,0,0.,24.0,0.,24.0
1980-11-13 18:05:44.460 ,2,1,0.,24.0,0.,24.0
1980-11-13 18:06:08.460 ,2,0,0.,24.0,0.,24.0
1980-11-13 18:06:32.460 ,1,1,0.,24.0,0.,24.0
1980-11-13 18:06:56.460 ,1,0,0.,24.0,0.,24.0
1980-11-13 18:07:20.460 ,0,1,0.,24.0,0.,24.0
1980-11-13 18:07:44.460 ,0,0,0.,24.0,0.,24.0
1980-11-13 18:08:08.460 ,0,1,0.,24.0,0.,24.0
1980-11-13 18:08:32.460 ,0,0,0.,24.0,0.,24.0
1980-11-13 18:08:56.460 ,1,1,0.,24.0,0.,24.0
1980-11-13 18:09:20.460 ,1,0,0.,24.0,0.,24.0
1980-11-13 18:09:44.460 ,2,1,0.,24.0,0.,24.0
1980-11-13 18:10:08.460 ,2,0,0.,24.0,0.,24.0
1980-11-13 18:10:32.460 ,3,1,1.,24.0,0.,24.0
1980-11-13 18:10:56.460 ,3,0,0.,24.0,0.,24.0
1980-11-13 18:11:20.460 ,4,1,0.,24.0,0.,24.0
1980-11-13 18:11:44.460 ,4,0,0.,24.0,0.,24.0
1980-11-13 18:12:08.460 ,5,1,0.,24.0,0.,24.0
1980-11-13 18:12:32.460 ,5,0,0.,24.0,0.,24.0
1980-11-13 18:12:56.460 ,6,1,0.,24.0,0.,24.0
1980-11-13 18:13:20.460 ,6,0,0.,24.0,0.,24.0
1980-11-13 18:13:44.460 ,7,1,0.,24.0,0.,24.0
1980-11-13 18:14:08.460 ,7,0,0.,24.0,0.,24.0
1980-11-13 18:14:32.460 ,7,1,0.,24.0,0.,24.0
1980-11-13 18:14:56.460 ,7,0,0.,24.0,0.,24.0
1980-11-13 18:15:20.460 ,6,1,0.,24.0,0.,24.0
1980-11-13 18:15:44.460 ,6,0,0.,24.0,0.,24.0
1980-11-13 18:16:08.460 ,5,1,0.,24.0,0.,24.0
1980-11-13 18:16:32.460 ,5,0,0.,24.0,0.,24.0
1980-11-13 18:16:56.460 ,4,1,0.,24.0,0.,24.0
1980-11-13 18:17:20.460 ,4,0,0.,24.0,0.,24.0
1980-11-13 18:17:44.460 ,3,1,0.,24.0,0.,24.0
1980-11-13 18:18:08.460 ,3,0,0.,24.0,0.,24.0
1980-11-13 18:18:32.460 ,2,1,0.,24.0,0.,24.0
1980-11-13 18:18:56.460 ,2,0,0.,24.0,0.,24.0
1980-11-13 18:19:20.460 ,1,1,0.,24.0,0.,24.0
1980-11-13 18:19:44.460 ,1,0,0.,24.0,0.,24.0
1980-11-13 18:20:08.460 ,0,1,0.,24.0,0.,24.0
1980-11-13 18:20:32.460 ,0,0,0.,24.0,0.,24.0
1980-11-13 18:20:56.460 ,0,1,0.,24.0,0.,24.0
1980-11-13 18:21:20.460 ,0,0,0.,24.0,0.,24.0
1980-11-13 18:21:44.460 ,1,1,0.,24.0,0.,24.0
1980-11-13 18:22:08.460 ,1,0,0.,24.0,0.,24.0
1980-11-13 18:22:32.460 ,2,1,0.,24.0,0.,24.0
1980-11-13 18:22:56.460 ,2,0,0.,24.0,0.,24.0
1980-11-13 18:23:20.460 ,3,1,0.,24.0,0.,24.0
1980-11-13 18:23:44.460 ,3,0,0.,24.0,0.,24.0
1980-11-13 18:24:08.460 ,4,1,0.,24.0,0.,24.0
1980-11-13 18:24:32.460 ,4,0,0.,24.0,0.,24.0
1980-11-13 18:24:56.460 ,5,1,0.,24.0,0.,24.0
1980-11-13 18:25:20.460 ,5,0,0.,24.0,0.,24.0
1980-11-13 18:25:44.460 ,6,1,0.,24.0,0.,24.0
1980-11-13 18:26:08.460 ,6,0,0.,24.0,0.,24.0
1980-11-13 18:26:32.460 ,7,1,0.,24.0,0.,24.0
1980-11-13 18:26:56.460 ,7,0,0.,24.0,0.,24.0
1980-11-13 18:27:20.460 ,7,1,0.,24.0,0.,24.0
1980-11-13 18:27:44.460 ,7,0,0.,24.0,0.,24.0
1980-11-13 18:28:08.460 ,6,1,0.,24.0,0.,24.0
1980-11-13 18:28:32.460 ,6,0,0.,24.0,0.,24.0
1980-11-13 18:28:56.460 ,5,1,0.,24.0,0.,24.0
1980-11-13 18:29:20.460 ,0,0,0.,24.0,0.,24.0
1980-11-13 18:30:52.860 ,0,0,0.,24.0,0.,24.0
1980-11-13 18:30:56.460 ,0,0,0.,24.0,0.,24.0
1980-11-13 18:31:20.460 ,2,1,0.,24.0,0.,24.0
1980-11-13 18:31:44.460 ,2,0,0.,24.0,0.,24.0
1980-11-13 18:32:08.460 ,1,1,0.,24.0,0.,24.0
1980-11-13 18:32:32.460 ,1,0,0.,24.0,0.,24.0
1980-11-13 18:32:56.460 ,0,1,0.,24.0,0.,24.0
1980-11-13 18:33:20.460 ,0,0,0.,24.0,0.,24.0
1980-11-13 18:33:44.460 ,0,1,0.,24.0,0.,24.0
1980-11-13 18:34:08.460 ,0,0,0.,24.0,0.,24.0
1980-11-13 18:34:32.460 ,1,1,0.,24.0,0.,24.0
1980-11-13 18:34:56.460 ,1,0,1.,24.0,0.,24.0
1980-11-13 18:35:20.460 ,2,1,0.,24.0,0.,24.0
1980-11-13 18:35:44.460 ,2,0,0.,24.0,0.,24.0
1980-11-13 18:36:08.460 ,3,1,0.,24.0,0.,24.0
1980-11-13 18:36:32.460 ,3,0,0.,24.0,0.,24.0
1980-11-13 18:36:56.460 ,4,1,0.,24.0,0.,24.0
1980-11-13 18:37:20.460 ,4,0,0.,24.0,0.,24.0
1980-11-13 18:37:44.460 ,5,1,0.,24.0,0.,24.0
1980-11-13 18:38:08.460 ,5,0,0.,24.0,0.,24.0
1980-11-13 18:38:32.460 ,6,1,0.,24.0,0.,24.0
1980-11-13 18:38:56.460 ,6,0,0.,24.0,0.,24.0
1980-11-13 18:39:20.460 ,7,1,0.,24.0,0.,24.0
1980-11-13 18:39:44.460 ,7,0,0.,24.0,0.,24.0
1980-11-13 18:40:08.460 ,7,1,0.,24.0,0.,24.0
1980-11-13 18:40:32.460 ,7,0,0.,24.0,0.,24.0
1980-11-13 18:40:56.460 ,6,1,0.,24.0,0.,24.0
1980-11-13 18:41:20.460 ,6,0,0.,24.0,0.,24.0
1980-11-13 18:41:44.460 ,5,1,0.,24.0,0.,24.0
1980-11-13 18:42:08.460 ,5,0,0.,24.0,0.,24.0
1980-11-13 18:42:32.460 ,4,1,0.,24.0,0.,24.0
1980-11-13 18:42:56.460 ,4,0,0.,24.0,0.,24.0
1980-11-13 18:43:20.460 ,3,1,0.,24.0,0.,24.0
1980-11-13 18:43:44.460 ,3,0,0.,24.0,0.,24.0
1980-11-13 18:44:08.460 ,2,1,0.,24.0,0.,24.0
1980-11-13 18:44:32.460 ,2,0,0.,24.0,0.,24.0
1980-11-13 18:44:56.460 ,1,1,0.,24.0,0.,24.0
1980-11-13 18:45:20.460 ,1,0,0.,24.0,0.,24.0
1980-11-13 18:45:44.460 ,0,1,0.,24.0,0.,24.0
1980-11-13 18:46:08.460 ,0,0,1.,24.0,0.,24.0
1980-11-13 18:46:32.460 ,0,1,0.,24.0,0.,24.0
1980-11-13 18:46:56.460 ,0,0,0.,24.0,0.,24.0
1980-11-13 18:47:20.460 ,1,1,1.,24.0,0.,24.0
1980-11-13 18:47:44.460 ,1,0,0.,24.0,0.,24.0
1980-11-13 18:48:08.460 ,2,1,0.,24.0,0.,24.0
1980-11-13 18:48:32.460 ,2,0,0.,24.0,0.,24.0
1980-11-13 18:48:56.460 ,3,1,0.,24.0,0.,24.0
1980-11-13 18:49:20.460 ,3,0,0.,24.0,0.,24.0
1980-11-13 18:49:44.460 ,4,1,0.,24.0,0.,24.0
1980-11-13 18:50:08.460 ,4,0,0.,24.0,0.,24.0
1980-11-13 18:50:32.460 ,5,1,0.,24.0,0.,24.0
1980-11-13 18:50:56.460 ,5,0,0.,24.0,0.,24.0
1980-11-13 18:51:20.460 ,6,1,0.,24.0,0.,24.0
1980-11-13 18:51:44.460 ,6,0,0.,24.0,0.,24.0
1980-11-13 18:52:08.460 ,7,1,0.,24.0,0.,24.0
1980-11-13 18:52:32.460 ,7,0,0.,24.0,0.,24.0
1980-11-13 18:52:56.460 ,7,1,0.,24.0,0.,24.0
1980-11-13 18:53:20.460 ,7,0,0.,24.0,0.,24.0
1980-11-13 18:53:44.460 ,6,1,0.,24.0,0.,24.0
1980-11-13 18:54:08.460 ,6,0,0.,24.0,0.,24.0
1980-11-13 18:54:32.460 ,5,1,0.,24.0,0.,24.0
1980-11-13 18:54:56.460 ,5,0,0.,24.0,0.,24.0
1980-11-13 18:55:20.460 ,4,1,0.,24.0,0.,24.0
1980-11-13 18:55:44.460 ,4,0,0.,24.0,0.,24.0
1980-11-13 18:56:08.460 ,3,1,0.,24.0,0.,24.0
1980-11-13 18:56:32.460 ,3,0,1.,24.0,0.,24.0
1980-11-13 18:56:56.460 ,2,1,0.,24.0,0.,24.0
1980-11-13 18:57:20.460 ,2,0,0.,24.0,0.,24.0
1980-11-13 18:57:44.460 ,1,1,0.,24.0,0.,24.0
1980-11-13 18:58:08.460 ,1,0,0.,24.0,0.,24.0
1980-11-13 18:58:32.460 ,0,1,0.,24.0,0.,24.0
1980-11-13 18:58:56.460 ,0,0,0.,24.0,0.,24.0
1980-11-13 18:59:20.460 ,0,1,0.,24.0,0.,24.0
1980-11-13 18:59:44.460 ,0,0,0.,24.0,0.,24.0
1980-11-13 19:00:08.460 ,1,1,0.,24.0,0.,24.0
1980-11-13 19:00:32.460 ,1,0,0.,24.0,0.,24.0
1980-11-13 19:00:56.460 ,2,1,0.,24.0,0.,24.0
1980-11-13 19:01:20.460 ,2,0,0.,24.0,0.,24.0
1980-11-13 19:01:44.460 ,3,1,0.,24.0,0.,24.0
1980-11-13 19:02:08.460 ,3,0,0.,24.0,0.,24.0
1980-11-13 19:02:32.460 ,4,1,0.,24.0,0.,24.0
1980-11-13 19:02:56.460 ,4,0,0.,24.0,0.,24.0
1980-11-13 19:03:20.460 ,5,1,0.,24.0,0.,24.0
1980-11-13 19:03:44.460 ,5,0,0.,24.0,0.,24.0
1980-11-13 19:04:08.460 ,6,1,0.,24.0,0.,24.0
1980-11-13 19:04:32.460 ,6,0,0.,24.0,0.,24.0
1980-11-13 19:04:56.460 ,7,1,0.,24.0,0.,24.0
1980-11-13 19:05:20.460 ,7,0,0.,24.0,0.,24.0
1980-11-13 19:05:44.460 ,7,1,0.,24.0,0.,24.0
1980-11-13 19:06:08.460 ,7,0,0.,24.0,0.,24.0
1980-11-13 19:06:32.460 ,6,1,0.,24.0,0.,24.0
1980-11-13 19:06:56.460 ,6,0,0.,24.0,0.,24.0
1980-11-13 19:07:20.460 ,5,1,0.,24.0,0.,24.0
1980-11-13 19:07:44.460 ,5,0,0.,24.0,0.,24.0
1980-11-13 19:08:08.460 ,4,1,0.,24.0,0.,24.0
1980-11-13 19:08:32.460 ,4,0,0.,24.0,0.,24.0
1980-11-13 19:08:56.460 ,3,1,0.,24.0,0.,24.0
1980-11-13 19:09:20.460 ,3,0,0.,24.0,0.,24.0
1980-11-13 19:09:44.460 ,2,1,0.,24.0,0.,24.0
1980-11-13 19:10:08.460 ,2,0,0.,24.0,0.,24.0
1980-11-13 19:10:32.460 ,1,1,0.,24.0,0.,24.0
1980-11-13 19:10:56.460 ,1,0,0.,24.0,0.,24.0
1980-11-13 19:11:20.460 ,0,1,0.,24.0,0.,24.0
1980-11-13 19:11:44.460 ,0,0,0.,24.0,0.,24.0
1980-11-13 19:12:08.460 ,0,1,0.,24.0,0.,24.0
1980-11-13 19:12:32.460 ,0,0,0.,24.0,0.,24.0
1980-11-13 19:12:56.460 ,1,1,0.,24.0,0.,24.0
1980-11-13 19:13:20.460 ,1,0,0.,24.0,0.,24.0
1980-11-13 19:13:44.460 ,2,1,0.,24.0,0.,24.0
1980-11-13 19:14:08.460 ,2,0,0.,24.0,0.,24.0
1980-11-13 19:14:32.460 ,3,1,0.,24.0,0.,24.0
1980-11-13 19:14:56.460 ,3,0,0.,24.0,0.,24.0
1980-11-13 19:15:20.460 ,4,1,0.,24.0,0.,24.0
1980-11-13 19:15:44.460 ,4,0,0.,24.0,0.,24.0
1980-11-13 19:16:08.460 ,5,1,0.,24.0,0.,24.0
1980-11-13 19:16:32.460 ,5,0,0.,24.0,0.,24.0
1980-11-13 19:16:56.460 ,6,1,0.,24.0,0.,24.0
1980-11-13 19:17:20.460 ,6,0,0.,24.0,0.,24.0
1980-11-13 19:17:44.460 ,7,1,0.,24.0,0.,24.0
1980-11-13 19:18:08.460 ,7,0,1.,24.0,0.,24.0
1980-11-13 19:18:32.460 ,7,1,0.,24.0,0.,24.0
1980-11-13 19:18:56.460 ,7,0,0.,24.0,0.,24.0
1980-11-13 19:19:20.460 ,6,1,1.,24.0,0.,24.0
1980-11-13 19:19:44.460 ,6,0,0.,24.0,0.,24.0
1980-11-13 19:20:08.460 ,5,1,0.,24.0,0.,24.0
1980-11-13 19:20:32.460 ,5,0,0.,24.0,0.,24.0
1980-11-13 19:20:56.460 ,4,1,0.,24.0,0.,24.0
1980-11-13 19:21:20.460 ,4,0,0.,24.0,0.,24.0
1980-11-13 19:21:44.460 ,3,1,0.,24.0,0.,24.0
1980-11-13 19:22:08.460 ,3,0,0.,24.0,0.,24.0
1980-11-13 19:22:32.460 ,2,1,0.,24.0,0.,24.0
1980-11-13 19:22:56.460 ,2,0,0.,24.0,0.,24.0
1980-11-13 19:23:20.460 ,1,1,0.,24.0,0.,24.0
1980-11-13 19:23:44.460 ,1,0,0.,24.0,0.,24.0
1980-11-13 19:24:08.460 ,0,1,0.,24.0,0.,24.0
1980-11-13 19:24:32.460 ,0,0,0.,24.0,0.,24.0
1980-11-13 19:24:56.460 ,0,1,0.,24.0,0.,24.0
1980-11-13 19:25:20.460 ,0,0,0.,24.0,0.,24.0
1980-11-13 19:25:44.460 ,1,1,0.,24.0,0.,24.0
1980-11-13 19:26:08.460 ,1,0,0.,24.0,0.,24.0
1980-11-13 19:26:32.460 ,2,1,0.,24.0,0.,24.0
1980-11-13 19:26:56.460 ,2,0,0.,24.0,0.,24.0
1980-11-13 19:27:20.460 ,3,1,0.,24.0,0.,24.0
1980-11-13 19:27:44.460 ,3,0,0.,24.0,0.,24.0
1980-11-13 19:28:08.460 ,4,1,0.,24.0,0.,24.0
1980-11-13 19:28:32.460 ,4,0,0.,24.0,0.,24.0
1980-11-13 19:28:56.460 ,5,1,0.,24.0,0.,24.0
1980-11-13 19:29:20.460 ,5,0,0.,24.0,0.,24.0
1980-11-13 19:29:44.460 ,6,1,0.,24.0,0.,24.0
1980-11-13 19:30:08.460 ,0,0,0.,24.0,0.,24.0
1980-11-13 19:30:44.460 ,0,0,0.,24.0,0.,24.0
1980-11-13 19:30:56.460 ,0,0,0.,24.0,0.,24.0
1980-11-13 19:31:19.860 ,0,0,,0,,0
1980-11-13 19:31:19.860 ,0,0,,0,,0
1980-11-13 19:31:20.460 ,7,1,0.,24.0,0.,24.0
1980-11-13 19:31:44.460 ,7,0,0.,24.0,0.,24.0
1980-11-13 19:32:08.460 ,6,1,0.,24.0,0.,24.0
1980-11-13 19:32:32.460 ,6,0,0.,24.0,0.,24.0
1980-11-13 19:32:56.460 ,5,1,0.,24.0,0.,24.0
1980-11-13 19:33:20.460 ,5,0,0.,24.0,0.,24.0
1980-11-13 19:33:44.460 ,4,1,0.,24.0,0.,24.0
1980-11-13 19:34:08.460 ,4,0,0.,24.0,0.,24.0
1980-11-13 19:34:32.460 ,3,1,0.,24.0,0.,24.0
1980-11-13 19:34:56.460 ,3,0,0.,24.0,0.,24.0
1980-11-13 19:35:20.460 ,2,1,0.,24.0,0.,24.0
1980-11-13 19:35:44.460 ,2,0,0.,24.0,0.,24.0
1980-11-13 19:36:08.460 ,1,1,0.,24.0,0.,24.0
1980-11-13 19:36:32.460 ,1,0,0.,24.0,0.,24.0
1980-11-13 19:36:56.460 ,0,1,0.,24.0,0.,24.0
1980-11-13 19:37:20.460 ,0,0,0.,24.0,0.,24.0
1980-11-13 19:37:44.460 ,0,1,0.,24.0,0.,24.0
1980-11-13 19:38:08.460 ,0,0,0.,24.0,0.,24.0
1980-11-13 19:38:32.460 ,1,1,0.,24.0,0.,24.0
1980-11-13 19:38:56.460 ,1,0,0.,24.0,0.,24.0
1980-11-13 19:39:20.460 ,2,1,0.,24.0,0.,24.0
1980-11-13 19:39:44.460 ,2,0,0.,24.0,0.,24.0
1980-11-13 19:40:08.460 ,3,1,0.,24.0,0.,24.0
1980-11-13 19:40:32.460 ,3,0,0.,24.0,0.,24.0
1980-11-13 19:40:56.460 ,4,1,0.,24.0,0.,24.0
1980-11-13 19:41:20.460 ,4,0,0.,24.0,0.,24.0
1980-11-13 19:41:44.460 ,5,1,0.,24.0,0.,24.0
1980-11-13 19:42:08.460 ,5,0,0.,24.0,0.,24.0
1980-11-13 19:42:32.460 ,6,1,0.,24.0,0.,24.0
1980-11-13 19:42:56.460 ,6,0,0.,24.0,0.,24.0
1980-11-13 19:43:20.460 ,7,1,0.,24.0,0.,24.0
1980-11-13 19:43:44.460 ,7,0,0.,24.0,0.,24.0
1980-11-13 19:44:08.460 ,7,1,0.,24.0,0.,24.0
1980-11-13 19:44:32.460 ,7,0,0.,24.0,0.,24.0
1980-11-13 19:44:56.460 ,6,1,0.,24.0,0.,24.0
1980-11-13 19:45:20.460 ,6,0,0.,24.0,0.,24.0
1980-11-13 19:45:44.460 ,5,1,0.,24.0,0.,24.0
1980-11-13 19:46:08.460 ,5,0,0.,24.0,0.,24.0
1980-11-13 19:46:32.460 ,4,1,0.,24.0,0.,24.0
1980-11-13 19:46:56.460 ,4,0,0.,24.0,0.,24.0
1980-11-13 19:47:20.460 ,3,1,0.,24.0,0.,24.0
1980-11-13 19:47:44.460 ,3,0,0.,24.0,0.,24.0
1980-11-13 19:48:08.460 ,2,1,0.,24.0,0.,24.0
1980-11-13 19:48:32.460 ,2,0,0.,24.0,0.,24.0
1980-11-13 19:48:56.460 ,1,1,0.,24.0,0.,24.0
1980-11-13 19:49:20.460 ,1,0,0.,24.0,0.,24.0
1980-11-13 19:49:44.460 ,0,1,0.,24.0,0.,24.0
1980-11-13 19:50:08.460 ,0,0,0.,24.0,0.,24.0
1980-11-13 19:50:32.460 ,0,1,0.,24.0,0.,24.0
1980-11-13 19:50:56.460 ,0,0,0.,24.0,0.,24.0
1980-11-13 19:51:20.460 ,1,1,0.,24.0,0.,24.0
1980-11-13 19:51:44.460 ,1,0,0.,24.0,0.,24.0
1980-11-13 19:52:08.460 ,2,1,0.,24.0,0.,24.0
1980-11-13 19:52:32.460 ,2,0,0.,24.0,0.,24.0
1980-11-13 19:52:56.460 ,3,1,0.,24.0,0.,24.0
1980-11-13 19:53:20.460 ,3,0,0.,24.0,0.,24.0
1980-11-13 19:53:44.460 ,4,1,0.,24.0,0.,24.0
1980-11-13 19:54:08.460 ,4,0,0.,24.0,0.,24.0
1980-11-13 19:54:32.460 ,5,1,0.,24.0,0.,24.0
1980-11-13 19:54:56.460 ,5,0,0.,24.0,0.,24.0
1980-11-13 19:55:20.460 ,6,1,0.,24.0,0.,24.0
1980-11-13 19:55:44.460 ,6,0,0.,24.0,0.,24.0
1980-11-13 19:56:08.460 ,7,1,0.,24.0,0.,24.0
1980-11-13 19:56:32.460 ,7,0,0.,24.0,0.,24.0
1980-11-13 19:56:56.460 ,7,1,0.,24.0,0.,24.0
1980-11-13 19:57:20.460 ,7,0,0.,24.0,0.,24.0
1980-11-13 19:57:44.460 ,6,1,0.,24.0,0.,24.0
1980-11-13 19:58:08.460 ,6,0,1.,24.0,0.,24.0
1980-11-13 19:58:32.460 ,5,1,0.,24.0,0.,24.0
1980-11-13 19:58:56.460 ,5,0,0.,24.0,0.,24.0
1980-11-13 19:59:20.460 ,4,1,0.,24.0,0.,24.0
1980-11-13 19:59:44.460 ,4,0,0.,24.0,0.,24.0
1980-11-13 20:00:08.460 ,3,1,0.,24.0,0.,24.0
1980-11-13 20:00:32.460 ,3,0,0.,24.0,0.,24.0
1980-11-13 20:00:56.460 ,2,1,0.,24.0,0.,24.0
1980-11-13 20:01:20.460 ,2,0,0.,24.0,0.,24.0
1980-11-13 20:01:44.460 ,1,1,0.,24.0,0.,24.0
1980-11-13 20:02:08.460 ,1,0,0.,24.0,0.,24.0
1980-11-13 20:02:32.460 ,0,1,0.,24.0,0.,24.0
1980-11-13 20:02:56.460 ,0,0,0.,24.0,0.,24.0
1980-11-13 20:03:20.460 ,0,1,0.,24.0,0.,24.0
1980-11-13 20:03:44.460 ,0,0,0.,24.0,0.,24.0
1980-11-13 20:04:08.460 ,1,1,0.,24.0,0.,24.0
1980-11-13 20:04:32.460 ,1,0,0.,24.0,0.,24.0
1980-11-13 20:04:56.460 ,2,1,0.,24.0,0.,24.0
1980-11-13 20:05:20.460 ,2,0,0.,24.0,0.,24.0
1980-11-13 20:05:44.460 ,3,1,0.,24.0,0.,24.0
1980-11-13 20:06:08.460 ,3,0,0.,24.0,0.,24.0
1980-11-13 20:06:32.460 ,4,1,0.,24.0,0.,24.0
1980-11-13 20:06:56.460 ,4,0,0.,24.0,0.,24.0
1980-11-13 20:07:20.460 ,5,1,0.,24.0,0.,24.0
1980-11-13 20:07:44.460 ,5,0,0.,24.0,0.,24.0
1980-11-13 20:08:08.460 ,6,1,0.,24.0,0.,24.0
1980-11-13 20:08:32.460 ,6,0,0.,24.0,0.,24.0
1980-11-13 20:08:56.460 ,7,1,0.,24.0,0.,24.0
1980-11-13 20:09:20.460 ,7,0,0.,24.0,0.,24.0
1980-11-13 20:09:44.460 ,7,1,0.,24.0,0.,24.0
1980-11-13 20:10:08.460 ,7,0,0.,24.0,0.,24.0
1980-11-13 20:10:32.460 ,6,1,0.,24.0,0.,24.0
1980-11-13 20:10:56.460 ,6,0,0.,24.0,0.,24.0
1980-11-13 20:11:20.460 ,5,1,0.,24.0,0.,24.0
1980-11-13 20:11:44.460 ,5,0,0.,24.0,0.,24.0
1980-11-13 20:12:08.460 ,4,1,0.,24.0,0.,24.0
1980-11-13 20:12:32.460 ,4,0,0.,24.0,0.,24.0
1980-11-13 20:12:56.460 ,3,1,0.,24.0,0.,24.0
1980-11-13 20:13:20.460 ,3,0,0.,24.0,0.,24.0
1980-11-13 20:13:44.460 ,2,1,0.,24.0,0.,24.0
1980-11-13 20:14:08.460 ,2,0,0.,24.0,0.,24.0
1980-11-13 20:14:32.460 ,1,1,1.,24.0,0.,24.0
1980-11-13 20:14:56.460 ,1,0,0.,24.0,0.,24.0
1980-11-13 20:15:20.460 ,0,1,0.,24.0,0.,24.0
1980-11-13 20:15:44.460 ,0,0,0.,24.0,0.,24.0
1980-11-13 20:16:08.460 ,0,1,0.,24.0,0.,24.0
1980-11-13 20:16:32.460 ,0,0,0.,24.0,0.,24.0
1980-11-13 20:16:56.460 ,1,1,0.,24.0,0.,24.0
1980-11-13 20:17:20.460 ,1,0,0.,24.0,0.,24.0
1980-11-13 20:17:44.460 ,2,1,0.,24.0,0.,24.0
1980-11-13 20:18:08.460 ,2,0,0.,24.0,0.,24.0
1980-11-13 20:18:32.460 ,3,1,0.,24.0,0.,24.0
1980-11-13 20:18:56.460 ,3,0,0.,24.0,0.,24.0
1980-11-13 20:19:20.460 ,4,1,0.,24.0,0.,24.0
1980-11-13 20:19:44.460 ,0,0,0.,24.0,0.,24.0
1980-11-13 20:20:08.460 ,5,1,0.,24.0,0.,24.0
1980-11-13 20:20:32.460 ,5,0,0.,24.0,0.,24.0
1980-11-13 20:20:56.460 ,6,1,0.,24.0,0.,24.0
1980-11-13 20:21:20.460 ,6,0,0.,24.0,0.,24.0
1980-11-13 20:21:44.460 ,7,1,0.,24.0,0.,24.0
1980-11-13 20:22:08.460 ,7,0,0.,24.0,0.,24.0
1980-11-13 20:22:32.460 ,7,1,0.,24.0,0.,24.0
1980-11-13 20:22:56.460 ,7,0,0.,24.0,0.,24.0
1980-11-13 20:23:20.460 ,6,1,0.,24.0,0.,24.0
1980-11-13 20:23:44.460 ,6,0,0.,24.0,0.,24.0
1980-11-13 20:24:08.460 ,5,1,0.,24.0,0.,24.0
1980-11-13 20:24:32.460 ,5,0,0.,24.0,0.,24.0
1980-11-13 20:24:56.460 ,4,1,0.,24.0,0.,24.0
1980-11-13 20:25:20.460 ,4,0,0.,24.0,0.,24.0
1980-11-13 20:25:44.460 ,3,1,0.,24.0,0.,24.0
1980-11-13 20:26:08.460 ,3,0,0.,24.0,0.,24.0
1980-11-13 20:26:32.460 ,2,1,0.,24.0,0.,24.0
1980-11-13 20:26:56.460 ,2,0,0.,24.0,0.,24.0
1980-11-13 20:27:20.460 ,1,1,0.,24.0,0.,24.0
1980-11-13 20:27:44.460 ,1,0,0.,24.0,0.,24.0
1980-11-13 20:28:08.460 ,0,1,0.,24.0,0.,24.0
1980-11-13 20:28:32.460 ,0,0,0.,24.0,0.,24.0
1980-11-13 20:28:56.460 ,0,1,0.,24.0,0.,24.0
1980-11-13 20:29:20.460 ,0,0,0.,24.0,0.,24.0
1980-11-13 20:29:44.460 ,1,1,0.,24.0,0.,24.0
1980-11-13 20:30:08.460 ,1,0,0.,24.0,0.,24.0
1980-11-13 20:30:32.460 ,2,1,0.,24.0,0.,24.0
1980-11-13 20:30:56.460 ,2,0,0.,24.0,0.,24.0
1980-11-13 20:31:20.460 ,3,1,0.,24.0,0.,24.0
1980-11-13 20:31:44.460 ,3,0,0.,24.0,0.,24.0
1980-11-13 20:32:08.460 ,4,1,0.,24.0,0.,24.0
1980-11-13 20:32:32.460 ,4,0,0.,24.0,0.,24.0
1980-11-13 20:32:56.460 ,5,1,0.,24.0,0.,24.0
1980-11-13 20:33:20.460 ,5,0,0.,24.0,0.,24.0
1980-11-13 20:33:44.460 ,6,1,0.,24.0,0.,24.0
1980-11-13 20:34:08.460 ,6,0,0.,24.0,0.,24.0
1980-11-13 20:34:32.460 ,7,1,0.,24.0,0.,24.0
1980-11-13 20:34:56.460 ,7,0,0.,24.0,0.,24.0
1980-11-13 20:35:20.460 ,7,1,0.,24.0,0.,24.0
1980-11-13 20:35:44.460 ,7,0,0.,24.0,0.,24.0
1980-11-13 20:36:08.460 ,6,1,1.,24.0,0.,24.0
1980-11-13 20:36:32.460 ,6,0,0.,24.0,0.,24.0
1980-11-13 20:36:56.460 ,5,1,0.,24.0,0.,24.0
1980-11-13 20:37:20.460 ,5,0,0.,24.0,0.,24.0
1980-11-13 20:37:44.460 ,4,1,0.,24.0,0.,24.0
1980-11-13 20:38:08.460 ,4,0,0.,24.0,0.,24.0
1980-11-13 20:38:32.460 ,3,1,0.,24.0,0.,24.0
1980-11-13 20:38:56.460 ,3,0,0.,24.0,0.,24.0
1980-11-13 20:39:20.460 ,2,1,0.,24.0,0.,24.0
1980-11-13 20:39:44.460 ,2,0,0.,24.0,0.,24.0
1980-11-13 20:40:08.460 ,1,1,0.,24.0,0.,24.0
1980-11-13 20:40:32.460 ,1,0,0.,24.0,0.,24.0
1980-11-13 20:40:56.460 ,0,1,0.,24.0,0.,24.0
1980-11-13 20:41:20.460 ,0,0,0.,24.0,0.,24.0
1980-11-13 20:41:44.460 ,0,1,0.,24.0,0.,24.0
1980-11-13 20:42:08.460 ,0,0,0.,24.0,0.,24.0
1980-11-13 20:42:32.460 ,1,1,0.,24.0,0.,24.0
1980-11-13 20:42:56.460 ,1,0,0.,24.0,0.,24.0
1980-11-13 20:43:20.460 ,2,1,0.,24.0,0.,24.0
1980-11-13 20:43:44.460 ,2,0,0.,24.0,0.,24.0
1980-11-13 20:44:08.460 ,3,1,0.,24.0,0.,24.0
1980-11-13 20:44:32.460 ,3,0,0.,24.0,0.,24.0
1980-11-13 20:44:56.460 ,4,1,0.,24.0,0.,24.0
1980-11-13 20:45:20.460 ,4,0,0.,24.0,0.,24.0
1980-11-13 20:45:44.460 ,5,1,0.,24.0,0.,24.0
1980-11-13 20:46:08.460 ,5,0,0.,24.0,0.,24.0
1980-11-13 20:46:32.460 ,6,1,0.,24.0,0.,24.0
1980-11-13 20:46:56.460 ,6,0,1.,24.0,0.,24.0
1980-11-13 20:47:20.460 ,7,1,0.,24.0,0.,24.0
1980-11-13 20:47:44.460 ,7,0,0.,24.0,0.,24.0
1980-11-13 20:48:08.460 ,7,1,0.,24.0,0.,24.0
1980-11-13 20:48:32.460 ,7,0,0.,24.0,0.,24.0
1980-11-13 20:48:56.460 ,6,1,0.,24.0,0.,24.0
1980-11-13 20:49:20.460 ,6,0,0.,24.0,0.,24.0
1980-11-13 20:49:44.460 ,5,1,0.,24.0,0.,24.0
1980-11-13 20:50:08.460 ,5,0,0.,24.0,0.,24.0
1980-11-13 20:50:32.460 ,4,1,0.,24.0,0.,24.0
1980-11-13 20:50:56.460 ,4,0,0.,24.0,0.,24.0
1980-11-13 20:51:20.460 ,3,1,0.,24.0,0.,24.0
1980-11-13 20:51:44.460 ,3,0,0.,24.0,0.,24.0
1980-11-13 20:52:08.460 ,2,1,0.,24.0,0.,24.0
1980-11-13 20:52:32.460 ,2,0,0.,24.0,0.,24.0
1980-11-13 20:52:56.460 ,1,1,0.,24.0,0.,24.0
1980-11-13 20:53:20.460 ,1,0,0.,24.0,0.,24.0
1980-11-13 20:53:44.460 ,0,1,0.,24.0,0.,24.0
1980-11-13 20:54:08.460 ,0,0,0.,24.0,0.,24.0
1980-11-13 20:54:32.460 ,0,1,0.,24.0,0.,24.0
1980-11-13 20:54:56.460 ,0,0,0.,24.0,0.,24.0
1980-11-13 20:55:20.460 ,1,1,0.,24.0,0.,24.0
1980-11-13 20:55:44.460 ,1,0,0.,24.0,0.,24.0
1980-11-13 20:56:08.460 ,2,1,0.,24.0,0.,24.0
1980-11-13 20:56:32.460 ,2,0,0.,24.0,0.,24.0
1980-11-13 20:56:56.460 ,3,1,0.,24.0,0.,24.0
1980-11-13 20:57:20.460 ,3,0,0.,24.0,0.,24.0
1980-11-13 20:57:44.460 ,4,1,0.,24.0,0.,24.0
1980-11-13 20:58:08.460 ,4,0,0.,24.0,0.,24.0
1980-11-13 20:58:32.460 ,5,1,0.,24.0,0.,24.0
1980-11-13 20:58:56.460 ,5,0,0.,24.0,0.,24.0
1980-11-13 20:59:20.460 ,6,1,0.,24.0,0.,24.0
1980-11-13 20:59:44.460 ,6,0,0.,24.0,0.,24.0
1980-11-13 21:00:08.460 ,7,1,0.,24.0,0.,24.0
